Location: Chavannes
(47.1090°N, 0.2226°W)
Time: 03:46:05
(UTC+00:00)

Cosmos 1758 - Pass Details

Date: 16 October 2021
Orbit: 540 x 560 km, 82.5° (Epoch: 03 December)

Event Time Altitude Azimuth Distance (km) Brightness Sun altitude
Rises 18:01:18 0° 188° (S) 2,705 7.0 -9.2°
Reaches altitude 10° 18:03:27 10° 188° (S) 1,814 6.1 -9.6°
Maximum altitude 18:07:27 90° 265° (W) 552 3.3 -10.3°
Drops below altitude 10° 18:11:27 10° 9° (N) 1,819 5.9 -11.0°
Sets 18:13:37 0° 10° (N) 2,714 6.7 -11.3°
